Fort Polk, LA

6:42 PM CDT on October 13, 2019 (GMT -0500)
Fort Polk

Weather History for KAQV - September, 2019

Change the Weather History Date:

Saturday, September 21, 2019

  Actual Average (KPOE) Record (KPOE)
Temperature  
Mean Temperature 80 °F -  
Max Temperature 93 °F 83 °F 99 °F (2005)
Min Temperature 70 °F 64 °F 55 °F (2012)
Cooling Degree Days 16    
Growing Degree Days 30 (Base 50)    
Moisture  
Dew Point 68 °F    
Average Humidity 75    
Maximum Humidity 97    
Minimum Humidity 16    
Precipitation  
Precipitation 0.00 in - - ()
Sea Level Pressure  
Sea Level Pressure 30.09 in    
Wind  
Wind Speed 1 mph (East)    
Max Wind Speed 6 mph    
Max Gust Speed -    
Visibility 8 miles    
Events      
Averages and records for this station are not official NWS values.
T = Trace of Precipitation, MM = Missing Value Source: NWS Daily Summary

Daily Weather History Graph

Daily Weather History Graph

Search for Another Location

Airport or City:

Astronomy

Sep. 21, 2019 Rise Set
Actual Time 7:00 AM CDT 7:11 PM CDT
Civil Twilight 6:36 AM CDT 7:35 PM CDT
Nautical Twilight 6:08 AM CDT 8:03 PM CDT
Astronomical Twilight 5:39 AM CDT 8:32 PM CDT
Moon No Moon Rise 1:43 PM CDT (9/21)
Length of Visible Light 12h 59m
Length of Day
12h 10m
Waning Gibbous, 54% of the Moon is Illuminated
Sep 21
Waning Gibbous
Sep 21
Last Quarter
Sep 28
New
Oct 5
First Quarter
Oct 13
Full

Hourly Weather History & Observations

Time (CDT) Temp. Heat Index Dew Point Humidity Pressure Visibility Wind Dir Wind Speed Gust Speed Precip Events Conditions
12:56 AM 72.0 °F - 70.0 °F 93% 30.09 in 5.0 mi Calm Calm - N/A   Clear
1:56 AM 73.0 °F - 71.1 °F 93% 30.08 in 6.0 mi Variable 3.5 mph - N/A   Clear
2:56 AM 73.0 °F - 70.0 °F 90% 30.07 in 9.0 mi Calm Calm - N/A   Clear
3:56 AM 72.0 °F - 70.0 °F 93% 30.08 in 7.0 mi Calm Calm - N/A   Clear
4:56 AM 72.0 °F - 69.1 °F 91% 30.09 in 8.0 mi Calm Calm - N/A   Clear
5:56 AM 71.1 °F - 69.1 °F 93% 30.09 in 7.0 mi Calm Calm - N/A   Clear
6:56 AM 71.1 °F - 69.1 °F 93% 30.11 in 6.0 mi Calm Calm - N/A   Clear
7:11 AM 70.0 °F - 68.0 °F 93% 30.11 in 2.5 mi Calm Calm - N/A   Scattered Clouds
7:16 AM 70.0 °F - 68.0 °F 93% 30.11 in 3.0 mi Calm Calm - N/A   Mostly Cloudy
7:28 AM 70.0 °F - 69.1 °F 97% 30.12 in 3.0 mi Calm Calm - N/A   Mostly Cloudy
7:56 AM 71.1 °F - 69.1 °F 93% 30.12 in 3.0 mi Calm Calm - N/A   Overcast
8:28 AM 73.0 °F - 70.0 °F 90% 30.13 in 10.0 mi Variable 3.5 mph - N/A   Scattered Clouds
8:56 AM 75.9 °F - 72.0 °F 87% 30.14 in 10.0 mi Calm Calm - N/A   Clear
9:56 AM 80.1 °F 83.8 °F 72.0 °F 76% 30.14 in 10.0 mi East 3.5 mph - N/A   Clear
10:56 AM 84.0 °F 89.0 °F 71.1 °F 65% 30.14 in 10.0 mi Variable 4.6 mph - N/A   Clear
11:41 AM 86.0 °F 91.5 °F 71.1 °F 61% 30.13 in 10.0 mi Calm Calm - N/A   Mostly Cloudy
11:53 AM 86.0 °F 91.8 °F 71.6 °F 62% 30.13 in 10.0 mi North - - N/A   Mostly Cloudy
12:56 PM 87.8 °F - 35.6 °F 16% - 10.0 mi Variable 3.5 mph - N/A   Scattered Clouds
1:56 PM 86.0 °F 89.4 °F 68.0 °F 55% 30.09 in 10.0 mi Calm Calm - N/A   Mostly Cloudy
2:56 PM 90.0 °F 94.5 °F 69.1 °F 50% 30.06 in 10.0 mi Variable 5.8 mph - N/A   Mostly Cloudy
3:56 PM 91.0 °F 93.8 °F 66.0 °F 44% 30.04 in 10.0 mi Variable 3.5 mph - N/A   Scattered Clouds
4:56 PM 89.1 °F 92.9 °F 68.0 °F 50% 30.02 in 10.0 mi Variable 5.8 mph - N/A   Clear
5:56 PM 89.1 °F 92.9 °F 68.0 °F 50% 30.02 in 10.0 mi Variable 3.5 mph - N/A   Clear
6:56 PM 84.9 °F 87.6 °F 66.9 °F 55% 30.03 in 10.0 mi Calm Calm - N/A   Clear
7:56 PM 78.1 °F - 71.1 °F 79% 30.03 in 10.0 mi Calm Calm - N/A   Clear
8:56 PM 79.0 °F - 69.1 °F 72% 30.06 in 10.0 mi Variable 4.6 mph - N/A   Partly Cloudy
9:56 PM 78.1 °F - 70.0 °F 76% 30.07 in 10.0 mi Variable 3.5 mph - N/A   Mostly Cloudy
10:56 PM 77.0 °F - 71.1 °F 82% 30.08 in 10.0 mi Variable 3.5 mph - N/A   Partly Cloudy
11:56 PM 75.9 °F - 71.1 °F 85% 30.07 in 10.0 mi Variable 3.5 mph - N/A   Clear